SCP
1 1 2 2 1 1 1 1 0 0 1 0 1 1 1 1 0 0 0 0 0 0
1 0 1 2 1 1 1 1 0 1 1 1 1 0 0 0 0 0 0 0 0 0
1 1 1 1 1 1 1 1 1 1 1 0 0 0 0 0 0 0 0 0 0 0
0 0 1 1 1 1 1 1 1 0 0 1 0 0 0 0 0 0 0 0 0 0
0 0 1 1 1 1 1 1 0 0 0 0 0 0 0 0 0 0 0 0 0 0
0 0 0 1 1 1 1 0 1 0 0 0 0 0 0 0 0 0 0 0 0 0
0 0 0 1 1 1 1 0 0 1 0 0 0 0 0 0 0 0 0 0 0 0
0 0 0 0 1 0 0 1 0 0 0 0 0 0 0 0 0 0 0 0 0 0
0 0 0 0 0 0 0 0 0 0 0 0 0 0 0 0 0 0 0 0 0 0
0 -0 -0 0 0 0 0 0 0 0 0 0 0 0 0 0 0 0 0 0 0 0
-0 -0 -0 0 0 0 0 0 0 0 0 0 0 0 0 0 0 0 0 0 0 0
-0 -0 -0 0 0 0 0 0 0 0 0 0 0 0 0 0 0 0 0 0 0 0
-0 -0 -0 0 0 0 0 -0 -0 0 0 0 0 0 0 0 0 0 0 0 0 0
-0 -0 0 0 0 0 0 0 0 0 0 0 0 0 0 0 0 0 0 0 0 0
Wind_Speed_500mb
47 62 74 68 69 66 76 85 84 90 92 86 86 83 74 76 71 61 60 58 51 44
50 57 65 75 69 65 76 81 93 99 98 91 85 85 80 76 68 62 59 57 50 50
57 55 56 70 71 68 74 82 83 87 102 89 93 87 83 77 74 64 58 56 58 57
54 53 53 59 69 68 67 77 89 100 89 94 89 92 85 82 76 63 61 59 61 62
49 47 45 60 67 67 69 75 73 88 90 95 86 94 87 81 73 67 62 65 67 62
44 45 46 58 64 59 71 79 92 89 90 89 97 86 79 78 72 68 64 67 72 57
32 39 43 52 64 56 68 87 109 101 103 96 86 79 83 77 72 65 61 65 60 54
42 38 52 48 64 54 61 90 113 97 96 95 92 93 89 82 73 69 66 62 58 53
49 43 48 49 60 59 60 97 92 98 102 96 98 95 94 85 75 73 70 65 61 56
58 51 50 44 48 55 58 97 90 97 95 95 97 97 92 81 77 74 65 62 64 59
53 53 53 49 42 51 53 82 91 95 97 90 94 95 86 78 72 65 59 59 56 52
54 52 51 44 40 50 48 81 78 108 97 89 76 78 83 76 67 65 58 56 50 46
52 52 47 44 38 52 43 56 96 102 98 91 83 79 79 75 72 66 63 58 50 46
54 55 46 43 38 50 48 38 82 102 103 84 87 84 79 73 67 70 69 65 61 53
Wind_Direction_500mb
287 273 265 262 262 259 259 258 252 221 223 218 226 227 226 223 224 224 223 222 221 215
291 290 264 255 263 257 256 255 248 242 222 222 224 223 222 221 221 220 217 218 219 217
295 291 268 257 257 260 256 249 239 226 218 225 219 223 220 222 221 216 215 214 214 214
294 295 278 258 258 261 256 243 239 224 219 198 206 222 215 217 218 214 213 212 216 219
294 302 285 256 259 258 251 231 206 213 202 200 215 217 216 217 217 214 208 211 214 213
307 305 289 260 254 254 245 236 216 190 187 206 218 213 219 221 217 210 207 208 208 210
299 306 284 255 251 248 238 228 196 196 200 201 206 209 223 222 213 204 203 202 207 208
295 295 307 254 254 243 239 221 205 197 198 197 201 215 218 217 204 200 195 196 198 201
286 288 298 273 247 240 230 211 189 198 192 196 208 216 219 208 199 198 196 191 191 193
286 281 285 285 250 237 226 205 194 197 197 201 213 216 211 198 197 197 197 195 189 186
274 270 282 296 249 229 218 211 207 208 205 209 217 210 201 195 195 197 194 194 193 188
271 263 278 290 245 225 196 220 199 209 205 207 199 198 197 192 190 190 190 191 188 190
273 267 270 289 256 231 210 231 219 212 208 199 194 195 197 191 186 186 185 187 185 191
271 268 264 286 254 214 201 208 204 200 202 195 190 189 194 187 188 190 185 184 181 180
Wind_Speed_850mb
47 62 74 68 69 66 76 85 84 90 92 86 86 83 74 76 71 61 60 58 51 44
50 57 65 75 69 65 76 81 93 99 98 91 85 85 80 76 68 62 59 57 50 50
57 55 56 70 71 68 74 82 83 87 102 89 93 87 83 77 74 64 58 56 58 57
54 53 53 59 69 68 67 77 89 100 89 94 89 92 85 82 76 63 61 59 61 62
49 47 45 60 67 67 69 75 73 88 90 95 86 94 87 81 73 67 62 65 67 62
44 45 46 58 64 59 71 79 92 89 90 89 97 86 79 78 72 68 64 67 72 57
32 39 43 52 64 56 68 87 109 101 103 96 86 79 83 77 72 65 61 65 60 54
42 38 52 48 64 54 61 90 113 97 96 95 92 93 89 82 73 69 66 62 58 53
49 43 48 49 60 59 60 97 92 98 102 96 98 95 94 85 75 73 70 65 61 56
58 51 50 44 48 55 58 97 90 97 95 95 97 97 92 81 77 74 65 62 64 59
53 53 53 49 42 51 53 82 91 95 97 90 94 95 86 78 72 65 59 59 56 52
54 52 51 44 40 50 48 81 78 108 97 89 76 78 83 76 67 65 58 56 50 46
52 52 47 44 38 52 43 56 96 102 98 91 83 79 79 75 72 66 63 58 50 46
54 55 46 43 38 50 48 38 82 102 103 84 87 84 79 73 67 70 69 65 61 53
Wind_Direction_850mb
287 273 265 262 262 259 259 258 252 221 223 218 226 227 226 223 224 224 223 222 221 215
291 290 264 255 263 257 256 255 248 242 222 222 224 223 222 221 221 220 217 218 219 217
295 291 268 257 257 260 256 249 239 226 218 225 219 223 220 222 221 216 215 214 214 214
294 295 278 258 258 261 256 243 239 224 219 198 206 222 215 217 218 214 213 212 216 219
294 302 285 256 259 258 251 231 206 213 202 200 215 217 216 217 217 214 208 211 214 213
307 305 289 260 254 254 245 236 216 190 187 206 218 213 219 221 217 210 207 208 208 210
299 306 284 255 251 248 238 228 196 196 200 201 206 209 223 222 213 204 203 202 207 208
295 295 307 254 254 243 239 221 205 197 198 197 201 215 218 217 204 200 195 196 198 201
286 288 298 273 247 240 230 211 189 198 192 196 208 216 219 208 199 198 196 191 191 193
286 281 285 285 250 237 226 205 194 197 197 201 213 216 211 198 197 197 197 195 189 186
274 270 282 296 249 229 218 211 207 208 205 209 217 210 201 195 195 197 194 194 193 188
271 263 278 290 245 225 196 220 199 209 205 207 199 198 197 192 190 190 190 191 188 190
273 267 270 289 256 231 210 231 219 212 208 199 194 195 197 191 186 186 185 187 185 191
271 268 264 286 254 214 201 208 204 200 202 195 190 189 194 187 188 190 185 184 181 180